F4DYW-13 Weather Reports


time (UTC)temp
C
wind
direction
speed
KPH
gust
KPH
rain 1hr
cm
rain 24hr
cm
rain mn
cm
humidity
%
barometer
mb
20260506145014 18 0 0.0 0.0 0.00 0.00 0.00 61 1011.6
20260506143258 18 0 0.0 0.0 0.00 0.00 0.00 60 1011.6
20260506141543 18 0 0.0 0.0 0.00 0.00 0.00 60 1011.5
20260506134114 18 0 0.0 0.0 0.00 0.00 0.00 60 1011.9
20260506132356 18 0 0.0 0.0 0.00 0.00 0.00 60 1011.9
20260506130641 18 0 0.0 0.0 0.00 0.00 0.00 59 1011.9
20260506123211 18 0 0.0 0.0 0.00 0.00 0.00 59 1012.0
20260506121454 18 0 0.0 0.0 0.00 0.00 0.00 60 1012.2
20260506115737 18 0 0.0 0.0 0.00 0.00 0.00 60 1012.2
20260506110551 17 0 0.0 0.0 0.00 0.00 0.00 62 1012.7
20260506104835 17 0 0.0 0.0 0.00 0.00 0.00 62 1013.0
20260506101404 17 0 0.0 0.0 0.00 0.00 0.00 62 1013.0
20260506095650 17 0 0.0 0.0 0.00 0.00 0.00 62 1013.0
20260506093934 17 0 0.0 0.0 0.00 0.00 0.00 62 1013.0
20260506092217 17 0 0.0 0.0 0.00 0.00 0.00 63 1013.0
20260506084746 17 0 0.0 0.0 0.00 0.00 0.00 65 1012.8
20260506083030 17 0 0.0 0.0 0.00 0.00 0.00 66 1012.6
20260506072127 17 0 0.0 0.0 0.00 0.00 0.00 70 1012.5
20260506050321 17 0 0.0 0.0 0.00 0.00 0.00 69 1011.3
20260506044605 17 0 0.0 0.0 0.00 0.00 0.00 70 1011.0
20260506042850 17 0 0.0 0.0 0.00 0.00 0.00 70 1010.9
20260506035418 17 0 0.0 0.0 0.00 0.00 0.00 70 1010.9
20260506022800 17 0 0.0 0.0 0.00 0.00 0.00 69 1011.2
20260506021044 17 0 0.0 0.0 0.00 0.00 0.00 69 1011.2
20260506015328 17 0 0.0 0.0 0.00 0.00 0.00 69 1011.4
20260506013613 17 0 0.0 0.0 0.00 0.00 0.00 69 1011.4
20260506011856 17 0 0.0 0.0 0.00 0.00 0.00 69 1011.3
20260506002710 17 0 0.0 0.0 0.00 0.00 0.00 69 1011.7
20260506000954 17 0 0.0 0.0 0.00 0.00 0.00 69 1011.9
20260505235240 17 0 0.0 0.0 0.00 0.00 0.00 69 1012.4
20260505233523 17 0 0.0 0.0 0.00 0.00 0.00 69 1012.6
20260505231809 17 0 0.0 0.0 0.00 0.00 0.00 68 1012.7
20260505224337 17 0 0.0 0.0 0.00 0.00 0.00 69 1012.7
20260505222623 17 0 0.0 0.0 0.00 0.00 0.00 69 1012.9
20260505204246 17 0 0.0 0.0 0.00 0.00 0.00 72 1013.7
20260505195059 17 0 0.0 0.0 0.00 0.00 0.00 72 1013.4
20260505191627 17 0 0.0 0.0 0.00 0.00 0.00 72 1012.8
20260505185915 17 0 0.0 0.0 0.00 0.00 0.00 71 1012.5
20260505184157 17 0 0.0 0.0 0.00 0.00 0.00 71 1012.3
20260505182441 17 0 0.0 0.0 0.00 0.00 0.00 72 1012.2
20260505173253 18 0 0.0 0.0 0.00 0.00 0.00 69 1011.8
20260505171538 18 0 0.0 0.0 0.00 0.00 0.00 70 1011.9
20260505165822 18 0 0.0 0.0 0.00 0.00 0.00 69 1012.0
20260505162354 18 0 0.0 0.0 0.00 0.00 0.00 69 1011.7
20260505160635 18 0 0.0 0.0 0.00 0.00 0.00 69 1011.6
20260505153206 18 0 0.0 0.0 0.00 0.00 0.00 69 1011.2
20260505151452 18 0 0.0 0.0 0.00 0.00 0.00 69 1011.5